timestamp,surface_pressure_avg,surface_temp_avg,battery_voltage,lat,long
2018-03-07 00:00:00+00:00,274.2347,1.5,12.81,47.84626,-54.09684
2018-03-07 00:10:00+00:00,280.1647,1.4,12.81,47.84626,-54.09684
2018-03-07 00:20:00+00:00,288.2914,1.44,12.89,47.84626,-54.09684
2018-03-07 00:30:00+00:00,292.3713,1.4,12.89,47.84626,-54.09684
2018-03-07 00:40:00+00:00,295.9214,1.4,12.89,47.84626,-54.09684
2018-03-07 00:50:00+00:00,304.788,1.4,12.89,47.84626,-54.09684
2018-03-07 01:00:00+00:00,312.6613,1.4,12.81,47.84626,-54.09684
2018-03-07 01:10:00+00:00,316.2063,1.4,12.81,47.84626,-54.09684
2018-03-07 01:20:00+00:00,322.7847,1.4,12.81,47.84626,-54.09684
2018-03-07 01:30:00+00:00,333.7596,1.3,12.81,47.84626,-54.09684
2018-03-07 01:40:00+00:00,340.5347,1.33,12.89,47.84626,-54.09684
2018-03-07 01:50:00+00:00,340.9279,1.4,12.89,47.84626,-54.09684
2018-03-07 02:00:00+00:00,344.2029,1.4,12.81,47.84626,-54.09684
2018-03-07 02:10:00+00:00,349.8679,1.4,12.73,47.84626,-54.09684
2018-03-07 02:20:00+00:00,350.1996,1.36,12.81,47.84626,-54.09684
2018-03-07 02:30:00+00:00,349.4179,1.39,12.81,47.84626,-54.09684
2018-03-07 02:40:00+00:00,353.903,1.3,12.81,47.84626,-54.09684
2018-03-07 02:50:00+00:00,357.8063,1.3,12.89,47.84626,-54.09684
2018-03-07 03:00:00+00:00,356.668,1.33,12.81,47.84626,-54.09684
2018-03-07 03:10:00+00:00,355.8079,1.3,12.73,47.84626,-54.09684
2018-03-07 03:20:00+00:00,357.0296,1.3,12.81,47.84626,-54.09684
2018-03-07 03:30:00+00:00,357.0431,1.3,12.81,47.84626,-54.09684
2018-03-07 03:40:00+00:00,356.8895,1.3,12.81,47.84626,-54.09684
2018-03-07 03:50:00+00:00,357.3263,1.3,12.81,47.84626,-54.09684
2018-03-07 04:00:00+00:00,352.8379,1.29,12.81,47.84626,-54.09684
2018-03-07 04:10:00+00:00,350.153,1.3,12.73,47.84626,-54.09684
2018-03-07 04:20:00+00:00,351.8347,1.3,12.81,47.84626,-54.09684
2018-03-07 04:30:00+00:00,349.5879,1.3,12.81,47.84626,-54.09684
2018-03-07 04:40:00+00:00,344.1546,1.26,12.81,47.84626,-54.09684
2018-03-07 04:50:00+00:00,343.0446,1.23,12.81,47.84626,-54.09684
2018-03-07 05:00:00+00:00,339.908,1.22,12.73,47.84626,-54.09684
2018-03-07 05:10:00+00:00,331.323,1.2,12.73,47.84626,-54.09684
2018-03-07 05:20:00+00:00,324.6146,1.2,12.81,47.84626,-54.09684
2018-03-07 05:30:00+00:00,320.0313,1.2,12.81,47.84626,-54.09684
2018-03-07 05:40:00+00:00,313.9431,1.2,12.81,47.84626,-54.09684
2018-03-07 05:50:00+00:00,305.5963,1.2,12.81,47.84626,-54.09684
2018-03-07 06:00:00+00:00,298.823,1.25,12.73,47.84626,-54.09684
2018-03-07 06:10:00+00:00,291.803,1.21,12.73,47.84626,-54.09684
2018-03-07 06:20:00+00:00,282.3664,1.2,12.81,47.84626,-54.09684
2018-03-07 06:30:00+00:00,270.9764,1.2,12.81,47.84626,-54.09684
2018-03-07 06:40:00+00:00,262.4848,1.2,12.81,47.84626,-54.09684
2018-03-07 06:50:00+00:00,255.1147,1.2,12.81,47.84626,-54.09684
2018-03-07 07:00:00+00:00,245.9998,1.2,12.73,47.84626,-54.09684
2018-03-07 07:10:00+00:00,236.3264,1.2,12.73,47.84626,-54.09684
2018-03-07 07:20:00+00:00,230.6281,1.2,12.81,47.84626,-54.09684
2018-03-07 07:30:00+00:00,223.8431,1.2,12.81,47.84626,-54.09684
2018-03-07 07:40:00+00:00,217.3248,1.2,12.81,47.84626,-54.09684
2018-03-07 07:50:00+00:00,213.1514,1.2,12.81,47.84626,-54.09684
2018-03-07 08:00:00+00:00,206.7348,1.2,12.73,47.84626,-54.09684
2018-03-07 08:10:00+00:00,201.8065,1.2,12.73,47.84626,-54.09684
2018-03-07 08:20:00+00:00,200.9398,1.2,12.81,47.84626,-54.09684
2018-03-07 08:30:00+00:00,198.5432,1.2,12.81,47.84626,-54.09684
2018-03-07 08:40:00+00:00,194.2848,1.2,12.81,47.84626,-54.09684
2018-03-07 08:50:00+00:00,193.1148,1.2,12.81,47.84626,-54.09684
2018-03-07 09:00:00+00:00,195.4297,1.2,12.73,47.84626,-54.09684
2018-03-07 09:10:00+00:00,195.5298,1.18,12.73,47.84626,-54.09684
2018-03-07 09:20:00+00:00,196.1781,1.14,12.81,47.84626,-54.09684
2018-03-07 09:30:00+00:00,196.8431,1.16,12.81,47.84626,-54.09684
2018-03-07 09:40:00+00:00,198.6698,1.16,12.81,47.84626,-54.09684
2018-03-07 09:50:00+00:00,203.9731,1.18,12.81,47.84626,-54.09684
2018-03-07 10:00:00+00:00,209.4931,1.17,12.73,47.84626,-54.09684
2018-03-07 10:10:00+00:00,212.9131,1.1,12.73,47.84626,-54.09684
2018-03-07 10:20:00+00:00,218.1964,1.1,12.81,47.84626,-54.09684
2018-03-07 10:30:00+00:00,223.2547,1.1,12.81,47.84626,-54.09684
2018-03-07 10:40:00+00:00,226.6348,1.11,12.81,47.84626,-54.09684
2018-03-07 10:50:00+00:00,229.8448,1.1,12.81,47.84626,-54.09684
2018-03-07 11:00:00+00:00,232.9397,1.18,12.73,47.84626,-54.09684
2018-03-07 11:10:00+00:00,236.1631,1.15,12.73,47.84626,-54.09684
2018-03-07 11:20:00+00:00,238.4864,1.1,12.81,47.84626,-54.09684
2018-03-07 11:30:00+00:00,241.2497,1.14,12.81,47.84626,-54.09684
2018-03-07 11:40:00+00:00,244.5664,1.15,12.81,47.84626,-54.09684
2018-03-07 11:50:00+00:00,249.4931,1.1,12.89,47.84626,-54.09684
2018-03-07 12:00:00+00:00,254.3197,1.1,12.81,47.84626,-54.09684
2018-03-07 12:10:00+00:00,257.6214,1.1,12.81,47.84626,-54.09684
2018-03-07 12:20:00+00:00,260.1481,1.1,12.89,47.84626,-54.09684
2018-03-07 12:30:00+00:00,264.2281,1.1,12.97,47.84626,-54.09684
2018-03-07 12:40:00+00:00,268.648,1.1,12.97,47.84626,-54.09684
2018-03-07 12:50:00+00:00,272.1814,1.1,13.05,47.84626,-54.09684
2018-03-07 13:00:00+00:00,278.8765,1.1,13.05,47.84626,-54.09684
2018-03-07 13:10:00+00:00,286.8114,1.1,13.05,47.84626,-54.09684
2018-03-07 13:20:00+00:00,292.088,1.16,13.21,47.84626,-54.09684
2018-03-07 13:30:00+00:00,295.5681,1.19,13.29,47.84626,-54.09684
2018-03-07 13:40:00+00:00,302.028,1.19,13.37,47.84626,-54.09684
2018-03-07 13:50:00+00:00,311.233,1.19,13.44,47.84626,-54.09684
2018-03-07 14:00:00+00:00,316.7146,1.2,13.44,47.84626,-54.09684
2018-03-07 14:10:00+00:00,319.5147,1.2,13.44,47.84626,-54.09684
2018-03-07 14:20:00+00:00,322.8546,1.18,13.6,47.84626,-54.09684
2018-03-07 14:30:00+00:00,319.3646,1.2,13.68,47.84626,-54.09684
2018-03-07 14:40:00+00:00,320.4513,1.2,13.6,47.84626,-54.09684
2018-03-07 14:50:00+00:00,322.893,1.2,13.53,47.84626,-54.09684
2018-03-07 15:00:00+00:00,323.643,1.2,13.44,47.84626,-54.09684
2018-03-07 15:10:00+00:00,323.7047,1.2,13.29,47.84626,-54.09684
2018-03-07 15:20:00+00:00,326.4146,1.2,13.44,47.84626,-54.09684
2018-03-07 15:30:00+00:00,326.603,1.2,13.53,47.84626,-54.09684
2018-03-07 15:40:00+00:00,323.5596,1.2,13.6,47.84626,-54.09684
2018-03-07 15:50:00+00:00,326.0197,1.23,13.76,47.84626,-54.09684
2018-03-07 16:00:00+00:00,330.263,1.2,13.6,47.84626,-54.09684
2018-03-07 16:10:00+00:00,331.2163,1.2,13.37,47.84626,-54.09684
2018-03-07 16:20:00+00:00,329.3813,1.2,13.44,47.84626,-54.09684
2018-03-07 16:30:00+00:00,327.9813,1.2,13.44,47.84626,-54.09684
2018-03-07 16:40:00+00:00,326.5096,1.2,13.37,47.84626,-54.09684
2018-03-07 16:50:00+00:00,323.003,1.2,13.37,47.84626,-54.09684
2018-03-07 17:00:00+00:00,320.423,1.2,13.29,47.84626,-54.09684
2018-03-07 17:10:00+00:00,321.178,1.2,13.21,47.84626,-54.09684
2018-03-07 17:20:00+00:00,318.6479,1.2,13.29,47.84626,-54.09684
2018-03-07 17:30:00+00:00,316.0447,1.2,13.37,47.84626,-54.09684
2018-03-07 17:40:00+00:00,311.473,1.23,13.37,47.84626,-54.09684
2018-03-07 17:50:00+00:00,305.3563,1.27,13.44,47.84626,-54.09684
2018-03-07 18:00:00+00:00,301.2713,1.29,13.29,47.84626,-54.09684
2018-03-07 18:10:00+00:00,297.558,1.3,13.21,47.84626,-54.09684
2018-03-07 18:20:00+00:00,289.8447,1.3,13.37,47.84626,-54.09684
2018-03-07 18:30:00+00:00,279.1247,1.3,13.37,47.84626,-54.09684
2018-03-07 18:40:00+00:00,270.3331,1.3,13.37,47.84626,-54.09684
2018-03-07 18:50:00+00:00,261.3631,1.23,13.37,47.84626,-54.09684
2018-03-07 19:00:00+00:00,251.0563,1.27,13.29,47.84626,-54.09684
2018-03-07 19:10:00+00:00,243.5081,1.3,13.13,47.84626,-54.09684
2018-03-07 19:20:00+00:00,238.0048,1.34,13.21,47.84626,-54.09684
2018-03-07 19:30:00+00:00,233.0531,1.4,13.21,47.84626,-54.09684
2018-03-07 19:40:00+00:00,224.3031,1.4,13.21,47.84626,-54.09684
2018-03-07 19:50:00+00:00,215.3665,1.4,13.21,47.84626,-54.09684
2018-03-07 20:00:00+00:00,212.6581,1.4,13.05,47.84626,-54.09684
2018-03-07 20:10:00+00:00,208.6814,1.4,12.97,47.84626,-54.09684
2018-03-07 20:20:00+00:00,199.2548,1.4,13.05,47.84626,-54.09684
2018-03-07 20:30:00+00:00,192.4531,1.4,13.05,47.84626,-54.09684
2018-03-07 20:40:00+00:00,192.5081,1.4,13.05,47.84626,-54.09684
2018-03-07 20:50:00+00:00,191.8915,1.4,13.05,47.84626,-54.09684
2018-03-07 21:00:00+00:00,189.5731,1.4,12.97,47.84626,-54.09684
2018-03-07 21:10:00+00:00,192.3981,1.39,12.89,47.84626,-54.09684
2018-03-07 21:20:00+00:00,199.6281,1.39,12.97,47.84626,-54.09684
2018-03-07 21:30:00+00:00,201.7314,1.39,12.97,47.84626,-54.09684
2018-03-07 21:40:00+00:00,200.2515,1.39,12.97,47.84626,-54.09684
2018-03-07 21:50:00+00:00,203.4048,1.37,12.97,47.84626,-54.09684
2018-03-07 22:00:00+00:00,208.0714,1.33,12.89,47.84626,-54.09684
2018-03-07 22:10:00+00:00,209.5731,1.3,12.81,47.84626,-54.09684
2018-03-07 22:20:00+00:00,211.6314,1.3,12.89,47.84626,-54.09684
2018-03-07 22:30:00+00:00,217.8898,1.3,12.89,47.84626,-54.09684
2018-03-07 22:40:00+00:00,222.1681,1.3,12.97,47.84626,-54.09684
2018-03-07 22:50:00+00:00,224.0397,1.3,12.97,47.84626,-54.09684
2018-03-07 23:00:00+00:00,229.1281,1.3,12.89,47.84626,-54.09684
2018-03-07 23:10:00+00:00,235.9331,1.3,12.81,47.84626,-54.09684
2018-03-07 23:20:00+00:00,242.4331,1.3,12.89,47.84626,-54.09684
2018-03-07 23:30:00+00:00,248.8331,1.3,12.89,47.84626,-54.09684
2018-03-07 23:40:00+00:00,251.4065,1.27,12.89,47.84626,-54.09684
2018-03-07 23:50:00+00:00,251.2614,1.2,12.89,47.84626,-54.09684
